Preview of NWS' New Version of Forecast
This preview is not operational and should not be used for support decisions.

Regional Weather Roundup (RWR)

Issued by National Weather Service (NWS)

                            
000
ASUS44 KMEG 230200
RWRTN 
TENNESSEE HOURLY STATE WEATHER ROUNDUP
NATIONAL WEATHER SERVICE MEMPHIS TN
800 PM CST FRI FEB 22 2019

TNZ002-004-019-021-049-052-054-088>092-230300-
WEST TENNESSEE
  
CITY           SKY/WX    TMP DP  RH WIND       PRES   REMARKS
MEMPHIS INTL   LGT RAIN  55  55 100 E9        30.05F                  
NWS MEMPHIS      N/A     55 N/A N/A MISG        N/A                   
JACKSON        MOCLDY    51  50  96 VRB6      30.09F                  
DYERSBURG      LGT RAIN  48  47  96 E6        30.08F                  
$$

TNZ008-025-027-028-033-062-065-066-230300-
NORTH MIDDLE TENNESSEE
  
CITY           SKY/WX    TMP DP  RH WIND       PRES   REMARKS
NASHVILLE      LGT RAIN  49  46  90 E5        30.18F                  
CLARKSVILLE    LGT RAIN  45  42  89 NE7       30.18S                  
SMYRNA         LGT RAIN  48  48 100 NE5       30.19F                  
CROSSVILLE     CLOUDY    49  47  93 SE3       30.22R                  
$$

TNZ061-075-076-078-094-096-097-230300-
SOUTH MIDDLE TENNESSEE
  
CITY           SKY/WX    TMP DP  RH WIND       PRES   REMARKS
$$

TNZ017-018-042-046-047-230300-
NORTHEAST TENNESSEE
  
CITY           SKY/WX    TMP DP  RH WIND       PRES   REMARKS
TRI CITIES     DRIZZLE   49  49 100 E5        30.27F                  
$$

TNZ012-013-036-069-073-074-230300-
CENTRAL EAST TENNESSEE
  
CITY           SKY/WX    TMP DP  RH WIND       PRES   REMARKS
KNOXVILLE      CLOUDY    50  49  96 N6        30.21S                  
OAK RIDGE      CLOUDY    51  51 100 E5        30.23F                  
$$

TNZ083-085-099-230300-
SOUTHEAST TENNESSEE
  
CITY           SKY/WX    TMP DP  RH WIND       PRES   REMARKS
CHATTANOOGA    DRIZZLE   51  50  96 N3        30.22R FOG              
$$

SKY/WX REPORTED AS FAIR MEANS FEW OR NO CLOUDS BELOW
12 THOUSAND FEET.